www.pogodaiklimat.ru

Погода и климат >> Архив погоды >> Эквадор >> Salinas


ПОГОДА в Salinas

  • Прогноз погоды в Salinas
  • Монитор погоды в Salinas
  • Климат города

АРХИВ ПОГОДЫ в Salinas

Время (UTC), дата Ветер
(напр.,м/с)
 
Видим.   Явления Облачность Т
(С)
Тd
(С)
f
(%)
Тe
(С)
Тes
(С)
Комфортность P
(гПа)
Po
(гПа)
Тmin
(С)
Tmax
(С)
R
(мм)
R24
(мм)
S
(см)
12 12.12 З 9 10 км мгла {туман} 10/10 300 м
[Sc]
+23.1 +21.2 89 +31 +31 очень
душно
1013.6 1013.1 +22.9
15 12.12 З 8 10 км мгла {туман} 10/10 300 м
[Cu Sc]
+24.4 +21.4 83 +31 +31 очень
душно
1014.5 1014.0
18 12.12 З 7 10 км мгла {туман} 9/9 300 м
[Cu Sc]
+24.2 +21.2 83 +31 +31 очень
душно
1013.0 1012.5
21 12.12 З 8 10 км мгла {туман} 8/4 300 м
[Cu Sc Ac trans]
+24.7 +21.0 80 +31 +31 очень
душно
1011.0 1010.5 +25.2
00 13.12 З 8 10 км мгла {туман} 8/6 300 м
[Cu Sc Ac trans]
+23.4 +20.8 85 +31 +31 очень
душно
1011.9 1011.5 +25.2
12 13.12 штиль 0 10 км мгла {туман} 9/5 300 м
[Sc Ac trans]
+23.5 +21.0 86 +30 +30 очень
душно
1013.2 1012.7 +23.2
15 13.12 ЮЗ 7 10 км мгла {туман} 3/0
[Ac trans]
+25.5 +21.0 76 +32 +35 очень
душно
1014.0 1013.5
18 13.12 З 7 10 км мгла {туман} 6/1 300 м
[Cu hum Ac trans]
+25.9 +21.7 78 +33 +36 очень
душно
1012.8 1012.3
21 13.12 ЮЗ 8 10 км мгла {туман} 6/1 300 м
[Cu hum Ac trans]
+25.2 +21.8 81 +32 +33 очень
душно
1010.8 1010.3 +26.0
12 14.12 ЮЗ 8 10 км мгла {туман} 9/0 2000 м
[Ac trans]
+23.3 +21.2 88 +31 +31 очень
душно
1013.9 1013.4 +23.1
15 14.12 ЮЗ 8 10 км мгла {туман} 9/9 300 м
[Cu Sc]
+24.7 +21.9 84 +32 +32 очень
душно
1014.9 1014.4
18 14.12 ЮЗ 10 10 км мгла {туман} 5/0
[Ac trans]
+26.1 +21.8 77 +34 +34 очень
душно
1013.3 1012.7
21 14.12 ЮЗ 10 10 км мгла {туман} ясно +25.6 +21.1 76 +32 +33 очень
душно
1011.1 1010.6 +26.6
12 15.12 Ю 8 10 км мгла {туман} 9/5 1000 м
[Sc Ac trans]
+23.7 +21.8 89 +30 +30 очень
душно
1013.2 1012.7 +23.6
18 15.12 З 8 10 км мгла {туман} ясно +27.0 +22.1 75 +35 +39 очень
душно
1012.1 1011.6
21 15.12 ЮЗ 12 10 км мгла {туман} ясно +25.7 +22.1 81 +33 +33 очень
душно
1009.5 1009.0 +27.2
12 16.12 ЮЗ 11 10 км мгла {туман} 9/6 300 м
[Sc Ac trans]
+23.6 +22.1 91 +30 +30 очень
душно
1013.8 1013.3 +23.1
15 16.12 ЮЗ 10 10 км мгла {туман} 10/10 300 м
[Cu Sc]
+24.1 +22.0 88 +31 +31 очень
душно
1015.0 1014.5
18 16.12 ЮЗ 10 10 км мгла {туман} 5/5 300 м
[Cu med, cong]
+25.8 +22.2 81 +34 +34 очень
душно
1012.7 1012.2
21 16.12 ЮЗ 10 10 км мгла {туман} 6/6 300 м
[Cu Sc]
+24.8 +22.0 84 +32 +32 очень
душно
1009.9 1009.4 +26.1
00 17.12 З 10 10 км мгла {туман} 3/3 600 м
[Sc]
+23.9 +21.8 88 +31 +31 очень
душно
1011.5 1011.0 +26.1
12 17.12 ЮЗ 8 10 км мгла {туман} 4/4 300 м
[Cu hum]
+23.3 +21.8 91 +32 +32 очень
душно
1012.4 1011.9 +23.0
18 17.12 З 8 10 км мгла {туман} 3/3 300 м
[Cu hum Ac trans]
+25.5 +22.1 81 +33 +35 очень
душно
1012.3 1011.8
21 17.12 ЮЗ 12 10 км мгла {туман} 6/4 300 м
[Cu med, cong Ac trans]
+25.2 +22.0 82 +32 +32 очень
душно
1009.9 1009.4 +26.0
15 18.12 ЮЗ 8 10 км мгла {дождь, туман} 10/10 300 м
[Cu Sc]
+23.9 +22.0 89 +31 +31 очень
душно
1014.1 1013.6
18 18.12 ЮЗ 8 10 км мгла {туман} 3/0
[Ac trans]
+25.9 +22.5 82 +34 +37 очень
душно
1012.2 1011.7 0.0
21 18.12 ЮЗ 10 10 км мгла {туман} 5/1 300 м
[Cu hum Ac trans]
+25.3 +22.3 83 +33 +33 очень
душно
1010.0 1009.5 +26.2

 

Местоположение метеостанции Salinas (Эквадор): широта -2.20 долгота -80.98 высота над уровнем моря 8 м.

В архиве по умолчанию представлена погода в Salinas за последнюю неделю. Архивные данные за месяц целиком и за предыдущие месяцы, начиная с января 2011 года, Вы можете получить, выбрав интересующий диапазон дат из раскрывающегося списка и нажав кнопку "Ввод!".


*Определитесь, кто Вы:
робот инопланетянин человек

Внимание! Время в таблицах - всемирное. Для получения местного времени необходимо прибавить поправку, которая в Salinas равна -5 ч.

Смотрите также архив погоды в соседних городах и на ближайших метеорологических станциях:

Погода в Guayaquil Aeropuerto (Эквадор) (122 км)
Погода в Guayaquil (Эквадор) (122 км)
Погода в Portoviejo Aeropuerto (Эквадор) (141 км)
Погода в Manta (Эквадор) (143 км)
Погода в Portoviejo (Эквадор) (144 км)
Погода в Milagro (Эквадор) (154 км)
Погода в Machala (Эквадор) (163 км)
Погода в Tumbes (Перу) (163 км)
Погода в Santa Rosa (Эквадор) (176 км)
Погода в Bahia De Caraquez (Эквадор) (191 км)

Пояснения к столбцам:

Ветер - указаны скорость ветра в м/с - средняя за 10 мин, порывы в срок и между сроками (в фигурных скобках) и направление, откуда дует ветер: С - северный, СВ - северо-восточный, В - восточный, ЮВ - юго-восточный, Ю - южный, ЮЗ - юго-западный, З - западный, СЗ - северо-западный.
Видимость - горизонтальная дальность видимости в метрах или километрах. При видимости от 1 до 10 км при отсутствии осадков обычно наблюдается дымка, при ухудшении видимости до 1 км и менее - туман. В сухую погоду видимость может ухудшаться дымом, пылью или мглою.
Явления - указаны атмосферные явления, наблюдавшиеся в срок или в последний час перед сроком; фигурными скобками обозначены явления, наблюдавшиеся между сроками (за 1-3 часа до срока); квадратными скобками обозначены град или гололедные отложения с указанием их диаметра в мм.
Облачность - указаны через наклонную черту общая и нижняя облачность в баллах и высота нижней границы облаков в метрах; квадратными скобками обозначены формы облаков: Ci - перистые, Cs - перисто-слоистые, Cc - перисто-кучевые, Ac - высококучевые, As - высокослоистые, Sc - слоисто-кучевые, Ns - слоисто-дождевые, Cu - кучевые, Cb - кучево-дождевые. Подробнее классификацию облаков см. в Атласе облаков (PDF).
T - Температура воздуха - температура, измеренная на высоте 2 м над землей.
Td - Температура точки росы - температура, при понижении до которой содержащийся в воздухе водяной пар достигнет насыщения.
f - Относительная влажность воздуха - влажноcть воздуха, измеренная на высоте 2 м над землей.
Te - Эффективная температура - температура, которую ощущает одетый по сезону человек в тени. Характеристика душности погоды. При расчете учитывается влияние влажности воздуха и скорости ветра на теплоощущения человека.
Tes - Эффективная температура на солнце - температура, которую ощущает человек, с поправкой на солнечный нагрев. Характеристика знойности погоды. Зависит от высоты солнца над горизонтом, облачности и скорости ветра. Ночью, в пасмурную погоду, а также при ветре 12 м/с и более поправка равна нулю.
P - Атмосферное давление - приведенное к уровню моря атмосферное давление.
Po - Атмосферное давление - измеренное на уровне метеостанции атмосферное давление.
Tmin - Минимальная температура - минимум температуры воздуха на высоте 2 м над землей.
Tmax - Максимальная температура - максимум температуры воздуха на высоте 2 м над землей.
R - Количество осадков - Количество выпавших осадков за период времени, мм. При наведении курсора мыши на число - период времени, за который выпало указанное количество осадков.
R24 - Количество осадков - Количество выпавших осадков за 24 часа, мм.
S - Снежный покров - Высота снежного покрова, см. При наведении курсора мыши на число - состояние снежного покрова и степень покрытия местности в баллах.